Погода в Пасае

Филиппины     14°32′33″N   120°59′45″E
темп.,
°C
ветер,
м/с
пор.,
м/с
влажн.,
%
обл.,
%
осадки,
мм/ч
давл.,
гПа
погр.,
м
13 апреля, вт
вт1323:00+28всв116621 0.0 1013444
02:00+27всв236894 0.0 1011505
05:00+26в2273100 0.0 1011325
08:00+27вюв2269100 0.0 1013498
11:00+30з2260100 0.0 1012769
14:00+32ююз1252100 0.0 1008916
17:00+33юв4552100 0.0 1007861
20:00+30вюв5664100 0.1 1010487
14 апреля, ср
ср1423:00+28вюв4471100 0.1 1011475
02:00+27всв2273100 0.4 1010301
05:00+27в227499 0.0 1010376
08:00+28всв226744 0.0 1012540
11:00+31юз235618 0.0 1011919
14:00+33юв335059 0.0 10071087
17:00+32вюв785485 0.0 1007659
20:00+29вюв676754 0.2 1010602
15 апреля, чт
чт1523:00+28вюв457191 0.1 1011487
02:00+27в3373100 0.4 1009454
05:00+27в337573 0.0 1009405
08:00+28в236923 0.0 1011598
11:00+30юз225884 0.0 1010861
14:00+32вюв125118 0.1 10071102
17:00+31ююв455576 0.2 1007546
20:00+29юв566299 0.3 1010540
16 апреля, пт
пт1623:00+28всв226597 0.1 1011587
02:00
05:00+27вюв3471100 0.0 1010499
08:00+28в4467100 0.0 1012656
11:00+31ю2450100 0.0 10111108
14:00+32юв5645100 0.0 1008883
17:00+32вюв6745100 0.0 1008732
20:00+28вюв6763100 0.0 1011558
17 апреля, сб
сб1723:00+27в447190 0.0 1012386
02:00+27в347273 0.0 1010430
05:00+27в3474100 0.0 1010427
08:00+27вюв336881 0.1 1013498
11:00+31с135158 0.0 10111023
14:00+33юв3447100 0.0 10091398
17:00+31вюв7855100 0.0 1009785
20:00+29вюв5664100 0.0 1011703